TimeEST,TemperatureF,Dew PointF,Humidity,Sea Level PressureIn,VisibilityMPH,Wind Direction,Wind SpeedMPH,Gust SpeedMPH,PrecipitationIn,Events,Conditions,WindDirDegrees,DateUTC
12:14 AM,59.0,52.9,80,29.62,10.0,SSW,17.3,-,N/A,,Mostly Cloudy,210,2013-01-30 05:14:00
12:34 AM,59.0,52.9,80,29.60,10.0,SSW,13.8,20.7,N/A,,Scattered Clouds,200,2013-01-30 05:34:00
12:54 AM,58.8,53.1,81,29.59,10.0,SSW,16.1,21.9,N/A,,Clear,200,2013-01-30 05:54:00
1:14 AM,59.4,53.2,80,29.57,10.0,SSW,17.3,24.2,N/A,,Clear,200,2013-01-30 06:14:00
1:34 AM,59.9,53.1,78,29.56,10.0,SSW,17.3,25.3,N/A,,Clear,200,2013-01-30 06:34:00
1:54 AM,59.9,52.9,78,29.55,10.0,SSW,16.1,24.2,N/A,,Clear,200,2013-01-30 06:54:00
2:14 AM,59.5,52.5,78,29.54,10.0,South,18.4,25.3,N/A,,Clear,190,2013-01-30 07:14:00
2:34 AM,59.0,52.2,78,29.52,10.0,South,18.4,-,N/A,,Clear,190,2013-01-30 07:34:00
2:54 AM,58.5,51.8,79,29.51,10.0,South,16.1,-,N/A,,Clear,190,2013-01-30 07:54:00
3:14 AM,59.0,51.8,77,29.49,10.0,South,19.6,25.3,N/A,,Clear,190,2013-01-30 08:14:00
3:34 AM,59.2,52.0,77,29.48,10.0,South,16.1,-,N/A,,Clear,190,2013-01-30 08:34:00
3:54 AM,58.3,51.8,79,29.47,10.0,South,12.7,-,N/A,,Mostly Cloudy,190,2013-01-30 08:54:00
4:14 AM,60.8,52.2,73,29.45,10.0,South,17.3,25.3,N/A,,Overcast,190,2013-01-30 09:14:00
4:34 AM,61.0,52.3,73,29.44,10.0,SSW,19.6,25.3,N/A,,Overcast,200,2013-01-30 09:34:00
4:53 AM,61.5,52.7,73,29.44,10.0,SSW,20.7,27.6,N/A,,Overcast,200,2013-01-30 09:53:00
5:14 AM,61.2,52.9,74,29.40,10.0,South,18.4,21.9,N/A,,Overcast,190,2013-01-30 10:14:00
5:34 AM,61.2,52.9,74,29.40,10.0,South,13.8,26.5,N/A,,Overcast,190,2013-01-30 10:34:00
5:53 AM,60.3,52.7,76,29.36,10.0,South,17.3,23.0,N/A,,Overcast,180,2013-01-30 10:53:00
6:14 AM,59.9,52.0,75,29.35,10.0,South,16.1,23.0,N/A,,Overcast,180,2013-01-30 11:14:00
6:34 AM,59.0,51.6,76,29.33,10.0,South,9.2,-,N/A,,Overcast,170,2013-01-30 11:34:00
6:53 AM,57.0,53.6,88,29.40,1.8,WNW,11.5,41.4,0.11,,Overcast,290,2013-01-30 11:53:00
7:14 AM,54.7,51.8,90,29.45,4.0,NW,11.5,18.4,0.07,,Overcast,310,2013-01-30 12:14:00
7:34 AM,52.9,50.2,91,29.47,5.0,NW,12.7,20.7,0.13,,Overcast,320,2013-01-30 12:34:00
7:54 AM,52.2,49.5,91,29.44,4.0,North,8.1,-,0.18,,Overcast,10,2013-01-30 12:54:00
8:14 AM,51.6,49.1,91,29.44,3.0,Calm,Calm,-,0.02,,Overcast,0,2013-01-30 13:14:00
8:34 AM,50.9,49.1,94,29.46,2.0,South,4.6,-,0.04,,Overcast,170,2013-01-30 13:34:00
8:54 AM,50.9,49.1,94,29.47,7.0,South,11.5,-,0.06,,Overcast,180,2013-01-30 13:54:00
9:14 AM,51.1,49.3,94,29.43,4.0,Calm,Calm,-,0.01,,Overcast,0,2013-01-30 14:14:00
9:34 AM,51.1,49.3,94,29.42,10.0,South,8.1,-,0.02,,Overcast,180,2013-01-30 14:34:00
9:54 AM,51.3,49.5,94,29.45,10.0,South,15.0,-,0.03,,Overcast,190,2013-01-30 14:54:00
10:14 AM,52.0,50.0,93,29.45,10.0,SSW,17.3,-,0.01,,Overcast,210,2013-01-30 15:14:00
10:34 AM,52.7,50.0,91,29.40,10.0,South,20.7,25.3,0.02,,Overcast,190,2013-01-30 15:34:00
10:54 AM,52.9,50.0,90,29.41,10.0,SSW,13.8,19.6,0.03,,Overcast,200,2013-01-30 15:54:00
11:14 AM,53.2,49.6,88,29.37,10.0,South,20.7,27.6,N/A,,Overcast,190,2013-01-30 16:14:00
11:34 AM,53.6,49.3,85,29.37,10.0,South,21.9,28.8,0.01,,Overcast,190,2013-01-30 16:34:00
11:54 AM,54.5,48.9,81,29.38,10.0,SSW,16.1,21.9,0.01,,Overcast,200,2013-01-30 16:54:00
12:13 PM,54.7,48.2,79,29.38,10.0,SSW,16.1,20.7,N/A,,Overcast,200,2013-01-30 17:13:00
12:34 PM,54.9,48.2,78,29.38,10.0,SW,17.3,24.2,N/A,,Mostly Cloudy,220,2013-01-30 17:34:00
12:54 PM,55.2,48.2,77,29.38,10.0,SW,18.4,24.2,0.01,,Scattered Clouds,220,2013-01-30 17:54:00
1:13 PM,55.4,48.2,77,29.39,10.0,SW,20.7,26.5,N/A,,Mostly Cloudy,220,2013-01-30 18:13:00
1:34 PM,55.0,48.6,79,29.35,10.0,SSW,18.4,29.9,N/A,,Overcast,210,2013-01-30 18:34:00
1:54 PM,54.9,48.7,80,29.35,10.0,SW,20.7,29.9,0.01,,Overcast,220,2013-01-30 18:54:00
2:14 PM,54.9,48.6,79,29.35,10.0,SW,20.7,32.2,N/A,,Overcast,220,2013-01-30 19:14:00
2:34 PM,54.5,48.6,80,29.35,10.0,SW,21.9,28.8,N/A,,Overcast,220,2013-01-30 19:34:00
2:54 PM,54.5,48.4,80,29.31,10.0,SSW,17.3,29.9,0.01,,Overcast,210,2013-01-30 19:54:00
3:14 PM,54.5,48.2,79,29.32,10.0,SSW,17.3,27.6,N/A,,Overcast,210,2013-01-30 20:14:00
3:34 PM,54.3,48.2,80,29.32,10.0,SSW,18.4,24.2,N/A,,Overcast,210,2013-01-30 20:34:00
3:54 PM,54.5,48.0,79,29.34,10.0,SW,25.3,31.1,N/A,,Overcast,220,2013-01-30 20:54:00
4:14 PM,54.5,47.3,77,29.31,10.0,SW,18.4,28.8,N/A,,Overcast,220,2013-01-30 21:14:00
4:34 PM,53.8,47.5,79,29.30,10.0,SW,17.3,25.3,N/A,,Overcast,220,2013-01-30 21:34:00
4:54 PM,54.0,46.4,76,29.28,10.0,SW,16.1,25.3,0.01,,Overcast,220,2013-01-30 21:54:00
5:14 PM,53.6,45.5,74,29.29,10.0,SW,18.4,25.3,N/A,,Overcast,220,2013-01-30 22:14:00
5:34 PM,53.6,45.1,73,29.28,10.0,SW,18.4,26.5,N/A,,Overcast,220,2013-01-30 22:34:00
5:54 PM,52.7,44.8,74,29.26,10.0,SW,17.3,25.3,N/A,,Mostly Cloudy,220,2013-01-30 22:54:00
6:14 PM,52.7,44.6,74,29.26,10.0,SW,17.3,-,N/A,,Scattered Clouds,230,2013-01-30 23:14:00
6:34 PM,52.7,43.7,71,29.26,10.0,SW,20.7,29.9,N/A,,Scattered Clouds,230,2013-01-30 23:34:00
6:54 PM,52.2,42.8,70,29.25,10.0,SW,21.9,26.5,N/A,,Scattered Clouds,220,2013-01-30 23:54:00
7:14 PM,51.8,43.3,73,29.25,10.0,SW,18.4,24.2,N/A,,Scattered Clouds,220,2013-01-31 00:14:00
7:34 PM,51.4,43.3,74,29.25,10.0,SW,13.8,24.2,0.01,,Overcast,230,2013-01-31 00:34:00
7:54 PM,42.8,37.6,82,29.28,5.0,WNW,29.9,41.4,0.01,,Overcast,290,2013-01-31 00:54:00
8:14 PM,40.5,35.4,82,29.30,10.0,West,26.5,36.8,N/A,,Overcast,280,2013-01-31 01:14:00
8:34 PM,39.9,35.2,83,29.30,10.0,West,25.3,29.9,N/A,,Overcast,280,2013-01-31 01:34:00
8:54 PM,38.3,34.0,84,29.32,7.0,WNW,18.4,31.1,N/A,,Overcast,290,2013-01-31 01:54:00
9:14 PM,37.9,32.2,80,29.33,10.0,West,28.8,32.2,N/A,,Overcast,280,2013-01-31 02:14:00
9:34 PM,37.4,31.6,80,29.34,10.0,West,19.6,34.5,N/A,,Overcast,280,2013-01-31 02:34:00
9:54 PM,36.5,31.1,81,29.34,10.0,WNW,18.4,25.3,N/A,,Overcast,290,2013-01-31 02:54:00
10:14 PM,35.6,30.2,81,29.37,10.0,West,20.7,27.6,N/A,,Overcast,270,2013-01-31 03:14:00
10:34 PM,34.5,29.8,83,29.37,10.0,West,28.8,34.5,N/A,,Overcast,280,2013-01-31 03:34:00
10:54 PM,33.8,28.0,79,29.38,10.0,West,31.1,40.3,N/A,,Overcast,280,2013-01-31 03:54:00
11:14 PM,33.3,27.3,79,29.41,10.0,West,26.5,35.7,N/A,,Overcast,270,2013-01-31 04:14:00
11:34 PM,33.3,26.6,77,29.42,10.0,West,25.3,36.8,N/A,,Overcast,270,2013-01-31 04:34:00
11:54 PM,33.3,26.6,77,29.44,10.0,West,29.9,36.8,N/A,,Overcast,280,2013-01-31 04:54:00